Albuquerque, NM

8:05 PM MDT on June 25, 2017 (GMT -0600)
Albuquerque International Sunport

Weather History for KABQ - January, 2012

Change the Weather History Date:

Sunday, January 1, 2012

  Actual Average Record
Temperature  
Mean Temperature 40 °F 35 °F  
Max Temperature 52 °F 45 °F 62 °F (1981)
Min Temperature 27 °F 26 °F 3 °F (1959)
Degree Days  
Heating Degree Days 25 30  
Month to date heating degree days 25 30  
Since 1 July heating degree days 1751 1787  
Cooling Degree Days 0 0  
Month to date cooling degree days 0 0  
Year to date cooling degree days 0 0  
Moisture  
Dew Point 16 °F    
Average Humidity 40    
Maximum Humidity 58    
Minimum Humidity 21    
Precipitation  
Precipitation 0.00 in 0.01 in 0.16 in (2000)
Month to date precipitation 0.00 0.01  
Year to date precipitation 0.00 0.01  
Snow  
Snow 0.00 in - - ()
Month to date snowfall 0.0  
Since 1 July snowfall 4.3  
Snow Depth 0.00 in    
Sea Level Pressure  
Sea Level Pressure 30.52 in    
Wind  
Wind Speed 4 mph (North)    
Max Wind Speed 12 mph    
Max Gust Speed 15 mph    
Visibility 10 miles    
Events      
T = Trace of Precipitation, MM = Missing Value Source: NWS Daily Summary

Daily Weather History Graph

Daily Weather History Graph

Search for Another Location

Airport or City:

Trip Planner

Search our weather history database for the weather conditions in past years. The results will help you decide how hot, cold, wet, or windy it might be!

Date:

Astronomy

Jan. 01, 2012 Rise Set
Actual Time 7:14 AM MST 5:05 PM MST
Civil Twilight 6:46 AM MST 5:33 PM MST
Nautical Twilight 6:14 AM MST 6:05 PM MST
Astronomical Twilight 5:44 AM MST 6:35 PM MST
Moon 11:47 AM MST (1/1) 12:21 AM MST (1/1)
Length of Visible Light 10h 47m
Length of Day
9h 50m
First Quarter, 55% of the Moon is Illuminated
Jan 1
First Quarter
Jan 9
Full
Jan 16
Last Quarter
Jan 23
New
Jan 30
First Quarter

Hourly Weather History & Observations

Time (MST) Temp. Windchill Dew Point Humidity Pressure Visibility Wind Dir Wind Speed Gust Speed Precip Events Conditions
12:56 AM 36.0 °F 29.0 °F 14.0 °F 41% 30.36 in 10.0 mi NE 9.2 mph - N/A   Scattered Clouds
1:56 AM 34.0 °F 29.8 °F 14.0 °F 44% 30.38 in 10.0 mi SW 4.6 mph - N/A   Partly Cloudy
2:56 AM 33.1 °F 30.0 °F 15.1 °F 48% 30.40 in 10.0 mi NW 3.5 mph - N/A   Partly Cloudy
3:56 AM 30.0 °F 24.1 °F 16.0 °F 56% 30.43 in 10.0 mi North 5.8 mph - N/A   Partly Cloudy
4:56 AM 30.0 °F 22.4 °F 15.1 °F 54% 30.46 in 10.0 mi North 8.1 mph - N/A   Clear
5:56 AM 30.9 °F 23.5 °F 15.1 °F 52% 30.48 in 10.0 mi North 8.1 mph - N/A   Clear
6:56 AM 28.0 °F 24.2 °F 16.0 °F 61% 30.52 in 10.0 mi NNW 3.5 mph - N/A   Partly Cloudy
7:56 AM 30.0 °F 21.7 °F 16.0 °F 56% 30.55 in 10.0 mi North 9.2 mph - N/A   Scattered Clouds
8:56 AM 33.1 °F 25.5 °F 15.1 °F 48% 30.58 in 10.0 mi North 9.2 mph - N/A   Scattered Clouds
9:56 AM 37.9 °F - 17.1 °F 43% 30.58 in 10.0 mi Calm Calm - N/A   Partly Cloudy
10:56 AM 41.0 °F 38.0 °F 16.0 °F 36% 30.58 in 10.0 mi WNW 4.6 mph - N/A   Partly Cloudy
11:56 AM 45.0 °F - 15.1 °F 30% 30.54 in 10.0 mi Calm Calm - N/A   Partly Cloudy
12:56 PM 48.9 °F - 10.9 °F 22% 30.50 in 10.0 mi Variable 4.6 mph - N/A   Partly Cloudy
1:56 PM 51.1 °F - 12.0 °F 21% 30.48 in 10.0 mi Calm Calm - N/A   Partly Cloudy
2:56 PM 51.1 °F - 12.0 °F 21% 30.50 in 10.0 mi Calm Calm - N/A   Partly Cloudy
3:56 PM 50.0 °F - 14.0 °F 24% 30.52 in 10.0 mi Calm Calm - N/A   Partly Cloudy
4:56 PM 48.9 °F - 16.0 °F 27% 30.52 in 10.0 mi Calm Calm - N/A   Partly Cloudy
5:56 PM 44.1 °F 40.8 °F 19.0 °F 37% 30.54 in 10.0 mi WNW 5.8 mph - N/A   Clear
6:56 PM 37.9 °F 35.5 °F 19.0 °F 47% 30.58 in 10.0 mi East 3.5 mph - N/A   Clear
7:56 PM 37.9 °F - 19.0 °F 47% 30.59 in 10.0 mi Calm Calm - N/A   Clear
8:56 PM 34.0 °F - 18.0 °F 52% 30.60 in 10.0 mi Calm Calm - N/A   Clear
9:56 PM 35.1 °F 32.2 °F 18.0 °F 50% 30.58 in 10.0 mi East 3.5 mph - N/A   Clear
10:56 PM 34.0 °F 31.0 °F 19.9 °F 56% 30.58 in 8.0 mi North 3.5 mph - N/A   Clear
11:56 PM 35.1 °F 28.6 °F 17.1 °F 48% 30.56 in 10.0 mi North 8.1 mph - N/A   Clear